Regional Weather Roundup
Issued by NWS

Home | Current Version | Previous Version | Text Only | Print | Product List | Glossary Off
Versions: 1 2 3 4 5 6 7 8 9 10 11 12 13 14 15 16 17 18 19 20 21 22 23 24 25 26 27 28 29 30 31 32 33 34 35 36 37 38 39 40 41 42 43 44 45 46 47 48 49 50

933
ASUS44 KLIX 192305
RWRLA
LOUISIANA WEATHER ROUNDUP
NATIONAL WEATHER SERVICE NEW ORLEANS LA
600 PM CDT FRI SEP 19 2014

NOTE: "FAIR" INDICATES FEW OR NO CLOUDS BELOW 12,000 FEET WITH NO
      SIGNIFICANT WEATHER AND/OR OBSTRUCTIONS TO VISIBILITY.
      SKY/WX - SKY CONDITION AND SIGNIFICANT WEATHER.
      TMP - AIR TEMPERATURE.    DP   - DEWPOINT TEMPERATURE.
      RH  - RELATIVE HUMIDITY.  PRES - PRESSURE.
      HX  - HEAT INDEX.         WCI  - WIND CHILL INDEX.

*  THESE STATIONS ARE NOT NWS OR FAA STATIONS AND ARE NOT UNDER
   NWS QUALITY CONTROL.

LAZ040-048-061>063-065-066-069-200000-
SOUTHEAST LOUISIANA

CITY           SKY/WX    TMP DP  RH WIND       PRES   REMARKS
N.O. AUDUBON     N/A     84  73  69 MISG        N/A
N.O. INTL ARPT PTSUNNY   83  68  60 E15       29.92S
N.O. LAKEFRONT MOSUNNY   83  68  60 E13       29.92S
N.O. DOWNTOWN* MOCLDY    84  68  58 SE8       29.93R
SLIDELL        SUNNY     84  68  58 E7        29.93R
BATON ROUGE    LGT RAIN  78  73  84 SE7       29.93R
BOOTHVILLE     CLOUDY    82  69  64 E14       29.91F
BELLE CHASSE   PTSUNNY   82  71  69 E10       29.91S
BOGALUSA*        N/A     84  71  65 E3        29.95S
GALLIANO*      NOT AVBL
NEW ROADS*     FAIR      85  70  59 E5        29.92R
GONZALES*      FAIR      84  70  61 E7        29.92R
HAMMOND*       MOSUNNY   81  72  74 CALM      29.95R
HOUMA*         PTSUNNY   81  59  47 E7        29.92R
PORT FOURCHON* MOCLDY    81  72  74 E14G21    29.94R

$$

LAZ041-044-053-054-200000-
SOUTHWEST LOUISIANA

CITY           SKY/WX    TMP DP  RH WIND       PRES   REMARKS
LAKE CHARLES   MOSUNNY   83  72  69 E7        29.90R
LAFAYETTE      SUNNY     85  70  60 E6        29.91R
PATTERSON      MOSUNNY   81  72  74 SE9       29.94R
SALT POINT       N/A     84  72  67 E7        29.90R
NEW IBERIA     SUNNY     87  69  54 E9        29.91R
CHENAULT AIRPK MOSUNNY   86  70  58 E9        29.90

$$

LAZ027-028-200000-
CENTRAL LOUISIANA

CITY           SKY/WX    TMP DP  RH WIND       PRES   REMARKS
FORT POLK      SUNNY     85  68  56 E7        29.91S
ALEXANDRIA INT SUNNY     87  66  49 E9        29.90S
ALEXANDRIA     SUNNY     88  69  53 E5        29.92S

$$

LAZ001-002-200000-
NORTHWEST LOUISIANA

CITY           SKY/WX    TMP DP  RH WIND       PRES   REMARKS
SHREVEPORT     MOSUNNY   88  67  49 E14       29.91R
BARKSDALE AFB  SUNNY     88  67  48 E10       29.91S
DTN SHREVEPORT SUNNY     87  68  52 VRB5      29.91S

$$

LAZ014-016-200000-
NORTHEAST LOUISIANA

CITY           SKY/WX    TMP DP  RH WIND       PRES   REMARKS
MONROE         MOSUNNY   88  67  49 CALM      29.94R
TALLULAH       SUNNY     88  66  48 NE6       29.93S

$$




USA.gov is the U.S. government's official web portal to all federal, state and local government web resources and services.